Regional Weather Roundup
Issued by NWS

Home | Current Version | Previous Version | Text Only | Print | Product List | Glossary On
Versions: 1 2 3 4 5 6 7 8 9 10 11 12 13 14 15 16 17 18 19 20 21 22 23 24 25 26 27 28
000
ASUS42 KTBW 250317
RWRFL
FLORIDA REGIONAL WEATHER ROUNDUP
NATIONAL WEATHER SERVICE TAMPA BAY RUSKIN FL
1100 PM EDT SAT JUN 24 2017

NOTE: "FAIR" INDICATES FEW OR NO CLOUDS BELOW 12,000 FEET WITH NO
SIGNIFICANT WEATHER AND/OR OBSTRUCTIONS TO VISIBILITY.

FLZ001>010-012>015-112-114-115-250400-
PANHANDLE FLORIDA

CITY           SKY/WX    TMP DP  RH WIND       PRES   REMARKS
PENSACOLA      MOCLDY    83  74  74 W7        30.06R
PENSACOLA NAS  CLEAR     81  76  84 W5        30.06R
MILTON NAS     PTCLDY    79  75  87 SW6       30.06R
CRESTVIEW      MOCLDY    80  76  87 SW5       30.08R
VALPARAISO     PTCLDY    81  76  85 SW6       30.06R
PANAMA CITY    FAIR      80  76  87 S7        30.06R
TYNDALL AFB    CLEAR     81  75  82 SW6       30.06S
APALACHICOLA   CLEAR     82  78  88 W7        30.07R

STATION/POSITION SKY/WX   TEMP    WIND        PRES    WAVE   SWELL
                          AIR SEA DIR/SP/G            HT/PER HT/PER
                          (F)     (DEG/KT/KT) (MB)    (FT/S) (FT/S)
30.1N   87.6W              83 83  250/ 12/ 14 1017.5R   2/ 6   2/ 6
29.2N   88.2W              83 83  210/  8/ 10 1018.5
28.8N   86.0W              82 83  210/  2/  4 1018.6R   2/ 6   2/ 6
PANAMA CITY BEAC           81 85  230/ 11/ 12 1018.5R
TOWER C                    81     240/  9/  9 1019.0R
28.5N   84.5W              82 84  290/  4/  6 1018.4R   2/ 6   2/ 6

$$
FLZ011-016>038-118-127-128-134-139-239-250400-
NORTH FLORIDA

CITY           SKY/WX    TMP DP  RH WIND       PRES   REMARKS
MARIANNA       CLEAR     80  76  87 SW6       30.05R
TALLAHASSEE    CLEAR     80  75  84 S5        30.06R
PERRY          CLEAR     78  74  88 CALM      30.08S
CROSS CITY     CLEAR     77  73  88 CALM      30.08S
LAKE CITY      FAIR      77  72  83 SW3       30.09R
GAINESVILLE    CLEAR     79  71  76 W3        30.07S
WILLISTON      CLEAR     81  73  78 CALM      30.08S
PALATKA        FAIR      81  81 100 S7        30.09R
MAYPORT NAS    PTCLDY    82  75  79 S6        30.06R
JACKSONVILLE   PTCLDY    81  77  88 S6        30.06R
JAX NAS        PTCLDY    86  77  74 S7        30.07R HX  97
FERNANDINA BEA FAIR      84  75  74 S7        30.05S
ST AUGUSTINE   CLOUDY    81  75  82 MISG      30.09R
PALM COAST     CLOUDY    77  76  96 S3        30.09R

STATION/POSITION SKY/WX   TEMP    WIND        PRES    WAVE   SWELL
                          AIR SEA DIR/SP/G            HT/PER HT/PER
                          (F)     (DEG/KT/KT) (MB)    (FT/S) (FT/S)
SHELL POINT      NOT AVBL
KEATON BEACH               83     240/ 12/ 13 1018.2R
CEDAR KEY                  83     320/  1/  2 1019.1R
FERNANDINA                 83 82  150/  5/  6 1018.8R
30.7N   81.3W                 80                N/A     3/ 4
MAYPORT                    82 79  200/  3/  5 1018.6R
31.4N   80.9W              82 82  180/ 17/ 21 1017.1R   3/ 4   2/10
ST AUGUSTINE               79 78  180/  8/  9 1018.8R

$$
FLZ040-043>046-052-053-057-058-063-144-250400-
INTERIOR CENTRAL FLORIDA

CITY           SKY/WX    TMP DP  RH WIND       PRES   REMARKS
OCALA          PTCLDY    81  74  79 W3        30.09R
THE VILLAGES     N/A     81  77  89 CALM      30.00R
LEESBURG       CLOUDY    84  75  74 SE3       30.11R
SANFORD        RAIN      77  75  93 CALM      30.09F
ORLANDO EXEC   CLOUDY    82  77  84 W6        30.10R THUNDER
ORLANDO INTL   CLOUDY    81  76  84 W3        30.10R THUNDER
KISSIMMEE      CLOUDY    82  75  78 N8        30.12R
WINTER HAVEN   CLOUDY    81  72  74 SW3       30.13R
LAKELAND       CLOUDY    77  77 100 CALM      30.11R
BARTOW         CLOUDY    81  73  78 CALM      30.12R
SEBRING        MOCLDY    83  74  74 W3        30.10R

$$
FLZ041-047-054-059-064-141-147-250400-
EAST CENTRAL FLORIDA

CITY           SKY/WX    TMP DP  RH WIND       PRES   REMARKS
DAYTONA BEACH  CLOUDY    82  76  81 SE3       30.09S
DELAND         CLOUDY    77  75  94 S9        30.09S
MELBOURNE      PTCLDY    82  75  79 S8        30.09R
VERO BEACH     PTCLDY    81  76  84 SE8       30.11R
FT PIERCE      CLEAR     80  76  87 S5        30.11R
STUART         CLEAR     81  77  89 S6        30.12

STATION/POSITION SKY/WX   TEMP    WIND        PRES    WAVE   SWELL
                          AIR SEA DIR/SP/G            HT/PER HT/PER
                          (F)     (DEG/KT/KT) (MB)    (FT/S) (FT/S)
28.5N   80.2W              82 80  150/ 12/ 16 1020.3
28.9N   78.5W              83 83  150/ 14/ 17 1019.5R   4/ 8   2/ 8
TRIDENT PIER               79 83  150/  8/ 10 1020.7R
28.4N   80.5W                 78                N/A     2/ 4
27.5N   80.2W                 79                N/A     2/ 8

$$
FLZ050-056-061-142-242-148-248-149-249-151-251-155-255-
160-260-250400-
WEST CENTRAL FLORIDA

CITY           SKY/WX    TMP DP  RH WIND       PRES   REMARKS
CRYSTAL RIVER  FAIR      77  75  94 CALM      30.09R
INVERNESS      FAIR      77  77 100 CALM      30.10R
BROOKSVILLE    PTCLDY    78  74  87 S3        30.11R
CLEARWATER AIR FAIR      81  75  83 CALM      30.10R
ST PETE CLEARW CLOUDY    83  76  79 CALM      30.10R
TAMPA INTL     CLOUDY    83  74  74 N5        30.11R
TAMPA EXEC     CLOUDY    81  75  83 CALM      30.11R
PLANT CITY     CLOUDY    82  77  83 MISG      30.13R
PETER O KNIGHT MOCLDY    84  79  84 CALM      30.11R HX  96
ST PETERSBURG  CLOUDY    83  76  79 S5        30.08R
SARASOTA       CLOUDY    81  75  82 E6        30.08R
VENICE         CLOUDY    82  75  78 CALM      30.10R

STATION/POSITION SKY/WX   TEMP    WIND        PRES    WAVE   SWELL
                          AIR SEA DIR/SP/G            HT/PER HT/PER
                          (F)     (DEG/KT/KT) (MB)    (FT/S) (FT/S)
27.3N   84.2W                 83                N/A     3/ 7
CLEARWATER BEACH           83 87  230/  4/  6 1019.3R
MIDDLE TAMPA BAY           82     180/  5/  6 1019.2R
VENICE                     84 88   20/  2/  3 1018.8R

$$
FLZ066-069-070-075>078-162-262-165-265-250400-
SOUTHWEST FLORIDA AND KEYS

CITY           SKY/WX    TMP DP  RH WIND       PRES   REMARKS
PUNTA GORDA    CLOUDY    80  75  84 W3        30.11R
FT MYERS       CLOUDY    80  76  87 CALM      30.09R
SOUTHWEST INTL CLOUDY    78  74  87 E6        30.10R
NAPLES         CLOUDY    80  79  96 N3        30.09R
MARCO ISLAND   PTCLDY    81  75  83 NE5       30.10R
IMMOKALEE        N/A     77  75  94 N5        30.11R
MARATHON       CLEAR     83  77  82 E10       30.07R
KEY WEST NAS   PTCLDY    83  77  82 E18       30.07R
KEY WEST INTL  PTCLDY    84  76  76 E17       30.07R

STATION/POSITION SKY/WX   TEMP    WIND        PRES    WAVE   SWELL
                          AIR SEA DIR/SP/G            HT/PER HT/PER
                          (F)     (DEG/KT/KT) (MB)    (FT/S) (FT/S)
NAPLES                        87   40/  3/  5 1019.0R
DRY TORTUGAS               84     110/ 14/ 14 1018.1R
SAND KEY                   83     110/ 17/ 19 1018.5R

$$
FLZ067-068-071>074-168-172>174-250400-
SOUTHEAST FLORIDA

CITY           SKY/WX    TMP DP  RH WIND       PRES   REMARKS
W PALM BEACH   MOCLDY    83  73  72 SE8       30.11R
BOCA RATON     PTCLDY    82  75  78 SE8       30.10R
FT LAUDER-EXEC PTCLDY    79  73  82 E10       30.09R
FT LAUDERDALE  PTCLDY    83  75  77 SE12      30.09R
POMPANO BEACH  PTCLDY    84  76  76 E12       30.10R
PEMBROKE PINES CLEAR     83  74  74 E9        30.11R
OPA LOCKA      PTCLDY    83  76  79 E10       30.10R
MIAMI          PTCLDY    84  74  71 E9        30.10R
WEST KENDALL   CLEAR     82  75  79 E8        30.09R
HOMESTEAD      MOCLDY    82  77  83 E8        30.08R

STATION/POSITION SKY/WX   TEMP    WIND        PRES    WAVE   SWELL
                          AIR SEA DIR/SP/G            HT/PER HT/PER
                          (F)     (DEG/KT/KT) (MB)    (FT/S) (FT/S)
PORT EVERGLADES            84     110/  5/  9 1018.9R
VIRGINIA KEY                       70/ 12/ 15   N/A
LAKE WORTH                 82 82  130/ 11/ 13 1020.2R
FOWEY ROCKS                83 82   90/ 15/ 16 1019.2R
SETTLEMENT POINT           83     120/ 12/ 14 1019.7R

$$





USA.gov is the U.S. government's official web portal to all federal, state and local government web resources and services.